Theta_e
324 324 323 323 324 324 323 322 322 321 321 321 320 320 320 321 321 323 323 324 324 324 324 323 323 322 321 321 322 321 321 321 320 320 321 321 320 320 319 319 321 318
323 323 323 323 322 322 323 323 322 321 321 322 321 320 321 322 322 323 323 323 323 323 323 323 322 321 321 320 321 321 319 320 318 318 320 319 319 319 319 319 319 318
323 323 323 323 323 323 323 323 323 322 322 321 322 322 321 323 322 322 322 323 323 323 323 323 322 321 320 320 320 320 319 319 318 318 319 317 319 318 318 318 318 319
323 324 324 325 325 324 324 322 321 320 321 320 321 321 322 322 323 322 323 322 323 322 323 322 322 320 319 319 320 319 319 318 317 319 318 317 318 317 317 318 317 317
323 322 324 324 324 326 324 323 321 320 318 321 322 321 322 322 321 321 321 321 322 321 322 321 321 321 320 320 320 319 319 317 317 319 317 316 317 317 317 317 316 315
323 321 322 323 324 325 324 322 322 320 320 321 322 321 323 323 321 320 321 320 320 321 321 321 321 320 320 320 321 319 318 317 317 318 315 315 315 316 314 317 315 314
323 322 322 322 323 324 324 323 323 321 321 323 322 322 322 322 321 320 320 320 319 319 319 321 320 320 321 321 321 320 319 318 317 316 314 315 315 315 314 316 314 313
323 323 323 323 324 324 324 323 324 323 322 321 321 321 321 322 321 322 320 319 319 318 319 318 318 319 319 320 319 319 320 320 318 316 315 315 316 313 314 314 316 314
323 323 322 323 323 323 323 323 324 324 322 322 322 320 320 320 321 321 320 320 319 319 318 318 318 319 319 319 319 318 318 319 319 318 316 315 314 314 312 313 314 313
323 323 323 323 323 325 325 324 324 324 323 323 322 321 320 321 321 320 320 321 320 319 319 319 319 319 319 319 318 318 318 317 317 318 317 317 315 314 313 314 315 314
324 324 323 323 324 325 325 325 325 325 324 323 324 323 322 321 321 321 321 320 321 320 320 320 320 320 320 320 320 320 319 319 318 317 318 316 316 316 316 316 315 315
323 323 323 323 323 324 324 325 326 326 325 325 324 323 323 323 322 321 321 320 321 321 321 321 321 321 321 321 320 320 320 320 320 319 318 317 317 318 316 316 315 314
322 322 323 323 323 324 325 324 324 326 325 324 325 324 322 322 322 321 322 322 322 322 322 322 321 321 322 322 321 320 320 319 320 319 318 318 317 317 318 317 317 316
323 323 323 324 324 324 323 324 325 325 325 326 324 323 322 321 320 320 321 321 323 322 323 322 321 321 321 322 321 322 322 321 320 320 319 318 318 317 318 320 318 317
323 323 324 324 323 323 323 323 323 324 324 323 322 322 323 322 323 323 321 320 321 322 322 322 321 322 321 322 321 321 321 321 321 319 319 319 318 317 317 317 318 317
321 322 321 322 322 322 322 322 322 322 323 323 322 321 321 323 322 322 321 321 321 321 321 322 319 319 316 308 310 319 321 320 320 320 319 319 318 318 318 317 317 318
319 319 320 320 321 321 322 322 322 322 322 322 321 322 322 322 322 319 321 321 321 321 321 321 320 319 306 301 299 299 313 321 321 321 320 319 318 317 317 318 318 317
318 318 318 319 320 320 321 321 321 321 321 321 319 320 321 322 322 321 320 320 321 320 321 321 321 306 298 298 297 296 300 318 322 322 321 319 319 318 318 318 318 318
318 318 318 319 319 320 321 320 319 319 320 320 319 320 320 320 320 319 319 319 319 318 319 320 321 294 293 292 293 294 293 302 320 322 321 321 321 321 320 320 320 319
316 318 319 319 319 319 319 318 318 318 319 319 318 317 317 317 316 315 315 315 315 318 320 318 318 296 291 291 292 292 292 295 317 321 322 322 321 321 321 321 320 320
311 312 315 316 316 316 317 317 317 317 317 317 318 317 315 315 315 316 316 316 316 316 316 315 310 291 291 290 291 292 291 293 315 316 319 321 320 319 319 319 318 318
306 307 308 309 310 313 315 316 316 317 316 314 314 314 314 314 313 315 314 313 314 314 315 314 309 291 291 290 290 291 292 310 313 315 317 319 318 315 315 316 316 316
307 307 306 305 305 307 308 309 309 309 311 312 312 312 312 313 313 313 312 313 312 314 314 314 314 297 290 290 291 291 299 312 312 313 313 315 312 311 311 311 312 312
306 306 306 306 305 307 309 309 309 309 309 309 310 309 310 311 310 309 309 311 312 313 314 313 312 300 291 292 291 292 302 314 315 316 313 311 309 308 308 308 304 299
307 308 308 309 308 308 309 308 307 309 309 307 308 309 309 308 308 309 308 307 308 308 300 310 311 302 291 292 291 292 305 316 315 315 312 309 308 306 305 306 304 299
306 306 307 308 308 309 308 309 308 307 307 306 305 307 308 308 307 308 308 306 304 304 305 308 310 309 299 290 292 293 296 313 314 313 310 308 307 306 304 304 303 301
Wind_Speed
5 5 5 5 5 5 6 6 5 5 4 4 4 4 4 3 3 4 4 4 4 4 4 4 4 4 4 4 4 3 4 4 4 4 4 4 4 4 4 5 5 5
5 7 6 5 5 5 5 4 5 6 5 5 4 4 3 4 4 4 4 4 4 4 4 4 4 4 4 4 4 4 4 4 4 3 4 5 4 5 5 5 5 4
6 7 8 9 8 8 7 5 4 5 5 5 5 4 4 4 5 4 4 4 5 4 4 4 4 4 4 4 4 4 4 4 4 4 4 5 4 4 4 3 4 4
7 5 6 8 8 8 7 6 5 5 5 5 5 5 4 4 5 5 4 4 4 4 4 4 4 4 4 4 4 4 4 4 3 3 4 4 4 4 4 3 3 3
7 4 3 6 7 7 7 7 7 6 6 6 5 6 6 5 5 5 5 4 4 4 4 4 4 4 4 4 4 4 4 4 3 3 4 5 3 3 2 3 4 4
5 6 5 5 6 6 7 6 4 6 4 6 6 5 6 6 5 5 5 5 4 4 4 4 4 3 3 4 3 4 3 3 3 3 4 4 4 3 2 3 4 4
6 6 6 3 4 4 6 6 4 5 4 3 4 4 5 6 6 5 5 5 5 4 4 4 4 3 3 2 3 3 3 3 2 2 3 4 3 4 2 2 3 4
7 6 6 6 6 4 5 6 6 5 5 4 5 4 4 5 5 4 4 4 4 4 4 4 4 4 3 2 2 2 3 2 2 2 1 2 2 3 3 2 3 3
7 7 7 8 8 7 5 5 6 5 6 5 4 5 4 5 5 5 4 4 4 4 4 3 3 3 3 3 3 2 1 1 1 2 2 2 2 2 2 2 2 2
6 6 8 7 8 7 8 6 5 6 5 5 4 4 6 5 6 6 5 4 5 5 4 4 4 3 3 2 3 3 3 3 2 1 1 1 1 1 2 2 2 2
5 6 7 7 7 6 7 6 6 7 6 6 6 5 6 6 5 6 6 5 4 4 4 4 4 3 2 2 1 1 1 1 2 2 2 1 0 2 2 2 3 4
5 5 7 8 7 7 7 7 6 6 7 5 5 5 5 5 6 5 5 6 6 5 4 3 3 3 2 1 1 1 1 1 2 0 2 3 6 5 3 3 5 5
6 6 6 7 7 8 7 7 7 6 7 7 6 6 7 6 5 6 4 4 4 3 3 3 3 2 2 2 2 2 2 2 3 3 3 4 5 7 5 7 7 7
5 5 6 7 7 7 7 8 7 6 6 5 6 7 7 8 7 6 6 5 5 5 3 1 2 2 3 3 3 4 3 3 4 4 4 5 6 8 8 7 7 6
4 4 4 4 5 6 6 6 6 5 4 5 5 5 5 6 7 6 5 4 3 3 3 3 3 3 2 2 3 4 3 3 3 4 4 4 5 6 7 8 7 6
2 2 2 3 4 6 6 6 5 4 4 5 5 6 6 5 5 4 5 6 5 3 3 2 2 1 1 2 3 3 3 3 3 3 4 4 5 5 6 7 7 6
1 2 2 3 3 3 3 5 5 5 5 5 5 5 5 5 5 5 4 4 4 3 3 2 1 1 1 4 5 6 5 4 3 3 3 4 4 5 5 5 5 6
1 2 3 3 4 5 5 5 4 5 5 5 5 5 4 3 3 3 3 2 2 2 1 0 1 4 1 1 2 5 5 4 4 3 4 4 4 5 5 5 5 4
2 3 3 4 5 6 5 4 4 4 4 4 5 4 4 3 2 1 2 1 0 1 1 2 2 6 2 3 2 3 5 4 3 4 4 4 3 3 3 3 3 3
2 1 2 2 3 3 3 2 3 5 3 2 3 4 3 3 2 2 2 3 4 3 2 2 3 4 6 5 3 1 4 5 3 3 3 3 2 2 2 2 2 3
2 2 2 1 1 3 5 6 6 3 3 3 4 5 6 6 6 6 4 4 3 3 4 3 2 1 1 2 2 1 6 5 2 2 1 0 0 1 1 2 2 2
3 3 2 2 1 2 3 5 4 4 5 4 4 4 4 4 4 4 5 5 4 4 4 4 3 2 2 3 3 5 7 3 2 1 1 0 1 2 2 2 2 3
3 4 3 3 3 1 2 2 3 3 4 3 6 5 5 5 4 3 3 4 4 4 4 4 3 3 3 4 5 6 4 2 3 2 2 2 2 2 2 3 4 4
3 2 3 3 2 2 3 3 3 2 3 1 4 5 4 4 4 4 2 2 3 4 2 4 3 2 2 3 8 5 2 3 2 3 3 3 3 3 3 3 6 11
5 4 0 3 4 4 3 3 3 3 3 2 1 3 4 4 3 4 3 2 2 2 2 1 3 2 2 2 5 5 2 1 1 2 3 3 3 4 4 4 5 8
3 5 4 2 1 2 3 4 4 4 5 4 3 3 4 4 3 4 5 3 2 2 2 1 2 3 4 1 5 6 2 1 2 2 3 3 3 3 4 5 5 6
Wind_Direction
150 146 141 136 127 131 138 141 141 137 130 127 127 126 117 114 111 99 96 94 88 86 79 72 66 60 57 53 36 42 57 49 50 33 47 63 70 76 81 78 75 84
158 146 138 130 126 134 139 147 144 142 139 133 129 127 124 124 111 112 112 111 105 95 95 92 85 81 78 74 63 69 65 53 56 23 54 64 62 65 66 68 77 84
167 163 156 153 150 152 148 150 145 139 141 142 136 139 131 126 119 110 110 117 114 108 98 96 93 86 84 83 85 82 82 79 67 44 53 52 44 68 66 65 71 65
185 187 159 143 142 155 148 151 152 145 137 153 156 146 142 134 128 124 117 119 118 114 110 104 101 100 94 95 95 86 86 87 87 88 88 78 57 67 66 66 68 67
163 173 172 147 156 158 150 159 160 150 162 157 144 146 146 145 141 136 130 123 123 126 126 119 115 110 117 107 106 104 99 99 102 113 103 98 91 85 77 87 89 82
163 161 173 173 162 161 151 150 169 143 161 145 159 153 150 152 148 141 140 134 129 129 132 130 123 114 111 111 106 102 112 112 111 126 114 112 116 116 119 117 113 106
168 159 154 159 157 163 144 142 154 147 161 143 144 159 156 153 148 141 136 135 138 138 131 126 121 116 110 116 112 110 106 101 112 118 124 119 125 126 133 136 121 116
166 162 161 160 157 173 171 154 153 149 152 157 160 141 148 133 131 127 134 140 142 131 121 112 110 111 115 110 112 126 126 132 129 128 113 119 137 138 134 139 153 143
160 162 161 164 161 169 188 173 152 151 157 170 165 139 138 130 126 132 137 140 117 95 93 97 108 114 118 126 122 119 101 109 154 177 176 169 180 176 177 155 174 161
160 156 162 166 172 175 178 177 167 156 160 166 163 151 135 126 132 132 130 129 124 128 131 135 129 125 130 142 151 162 172 171 167 196 273 257 238 222 214 220 242 209
156 158 162 172 177 178 177 166 178 160 160 166 166 167 142 136 133 138 143 149 151 153 151 149 142 138 140 146 155 170 224 189 175 164 149 121 287 237 221 252 268 262
169 166 171 177 183 181 181 176 175 171 155 159 164 151 136 137 146 161 166 164 166 169 167 163 166 169 169 182 201 196 210 298 324 41 138 173 236 232 200 211 229 250
182 184 178 177 187 191 176 176 177 176 159 157 159 148 147 151 158 150 162 187 176 156 184 185 202 190 188 221 232 238 232 240 253 247 201 193 243 258 218 212 230 223
193 185 187 187 194 183 178 179 174 174 164 144 149 153 159 165 166 175 172 186 189 190 186 143 177 203 209 226 242 250 240 224 226 235 230 205 220 238 246 226 219 220
178 186 190 184 178 175 173 174 177 173 153 139 146 153 161 174 176 171 164 179 182 189 170 168 196 215 212 191 240 254 253 255 251 249 248 244 228 234 244 249 239 220
159 150 164 165 177 180 180 175 172 163 154 141 144 152 165 167 148 144 165 176 189 178 175 183 160 198 242 216 245 266 253 247 236 240 241 239 239 239 239 243 249 240
159 164 161 168 168 170 168 174 165 158 153 143 145 160 170 175 156 168 185 178 176 173 175 194 162 130 142 231 232 242 258 256 255 248 230 236 238 242 246 248 236 239
186 180 203 194 184 190 191 179 155 162 161 153 155 170 191 200 191 168 155 177 169 163 162 160 230 89 73 352 220 209 218 243 247 246 239 235 230 233 235 231 238 235
215 210 200 191 198 197 190 164 167 173 185 175 164 169 176 200 194 135 156 126 94 140 151 156 162 79 106 101 102 188 201 228 237 232 236 238 238 239 251 264 276 274
317 254 225 206 186 165 131 122 181 195 188 171 134 143 161 166 175 184 159 171 168 152 112 76 88 42 24 30 56 116 178 196 232 240 238 234 232 238 251 273 277 286
351 316 287 215 170 156 165 187 218 173 172 174 171 162 165 167 166 163 154 137 113 109 120 115 101 50 347 34 17 132 154 196 193 221 248 228 56 25 336 326 316 302
65 51 9 346 289 164 171 158 158 163 150 143 131 119 111 114 100 107 120 121 124 129 120 115 112 147 123 155 174 144 161 144 135 138 156 70 49 26 7 4 349 332
49 92 81 37 360 18 87 88 108 110 115 127 121 122 128 131 128 122 119 126 142 154 120 108 115 104 65 110 128 154 155 104 121 122 125 132 73 45 50 41 26 354
1 31 104 119 84 30 49 58 60 79 107 126 138 141 135 131 131 129 132 117 106 97 89 117 115 69 352 110 148 154 141 128 143 138 122 115 105 70 59 57 47 27
335 326 2 162 166 162 156 149 150 154 143 142 120 131 128 139 145 131 118 104 80 99 33 153 122 100 40 15 109 131 137 99 112 118 119 103 106 90 66 67 62 50
321 317 310 318 272 184 171 170 153 150 161 161 154 165 148 145 143 141 147 143 140 163 147 116 105 102 66 44 155 147 196 192 126 132 125 120 108 109 103 85 84 81